EHI
0 0 0 0 0 0 0 0 0 0 0 0 0 0 0 0 0 0 0 0 0 0 0 0 0 0 0 0 0 0 0 0 0 0 0 0 0 0
0 0 0 0 0 0 0 0 0 0 0 0 0 0 0 0 0 0 0 0 0 0 0 0 0 0 0 0 0 0 0 0 0 0 0 0 0 0
0 0 0 0 0 0 0 0 0 0 0 0 0 0 0 0 0 0 0 0 0 0 0 0 0 0 0 0 0 0 0 0 0 0 0 0 0 0
0 0 0 0 0 0 0 0 0 0 0 0 0 0 0 0 0 0 0 0 0 0 0 0 0 0 0 0 0 0 0 0 0 0 0 0 0 0
0 0 0 0 0 0 0 0 0 0 0 0 0 0 0 0 0 0 0 0 0 0 0 0 0 0 0 0 0 0 0 0 0 0 0 0 0 0
0 0 0 0 0 0 0 0 0 0 0 0 0 0 0 0 0 0 0 0 0 0 0 0 0 0 0 0 0 0 0 0 0 0 0 0 0 0
0 0 0 0 0 0 0 0 0 0 0 0 0 0 0 0 0 0 0 0 0 0 0 0 0 0 0 0 0 0 0 0 0 0 0 0 0 0
0 0 0 0 0 0 0 0 0 0 0 0 0 0 0 0 0 0 0 0 0 0 0 0 0 0 0 0 0 0 0 0 0 0 0 0 0 0
0 0 0 0 0 0 0 0 0 0 0 0 0 0 0 0 0 0 0 0 0 0 0 0 0 0 0 0 0 0 0 0 0 0 0 0 0 0
0 0 0 0 0 0 0 0 0 0 0 0 0 0 0 0 0 0 0 0 0 0 0 0 0 0 0 0 0 0 0 0 0 0 0 0 0 0
0 0 0 0 0 0 0 0 0 0 0 0 0 0 0 0 0 0 0 0 0 0 0 0 0 0 0 0 0 0 0 0 0 0 0 0 0 0
0 0 0 0 0 0 0 0 0 0 0 0 0 0 0 0 0 0 0 0 0 0 0 0 0 0 0 0 0 0 0 0 0 0 0 0 0 0
0 0 0 0 0 0 0 0 0 0 0 0 0 0 0 0 0 0 0 0 0 0 0 0 0 0 0 0 0 0 0 0 0 0 0 0 0 0
0 0 0 0 0 0 0 0 0 0 0 0 0 0 0 0 0 0 0 0 0 0 0 0 0 0 0 0 0 0 0 0 0 0 0 0 0 0
0 0 0 0 0 0 0 0 0 0 0 0 0 0 0 0 0 0 0 0 0 0 0 0 0 0 0 0 0 0 0 0 0 0 0 0 0 0
0 0 0 0 0 0 0 0 0 0 0 0 0 0 0 0 0 0 0 0 0 0 0 0 0 0 0 0 0 0 0 0 0 0 0 0 0 0
0 0 0 0 0 0 0 0 0 0 0 0 0 0 0 0 0 0 0 0 0 0 0 0 0 0 0 0 0 0 0 0 0 0 0 0 0 0
0 0 0 0 0 0 0 0 0 0 0 0 0 0 0 0 0 0 0 0 0 0 0 0 0 0 0 0 0 0 0 0 0 0 0 0 0 0
0 0 0 0 0 0 0 0 0 0 0 0 0 0 0 0 0 0 0 0 0 0 0 0 0 0 0 0 0 0 0 0 0 0 0 0 0 0
0 0 0 0 0 0 0 0 0 0 0 0 0 0 0 0 0 0 0 0 0 0 0 0 0 0 0 0 0 0 0 0 0 0 0 0 0 0
0 0 0 0 0 0 0 0 0 0 0 0 0 0 0 0 0 0 0 0 0 0 0 0 0 0 0 0 0 0 0 0 0 0 0 0 0 0
0 0 0 0 0 0 0 0 0 0 0 0 0 0 0 0 0 0 0 0 0 0 0 0 0 0 0 0 0 0 0 0 0 0 0 0 0 0
0 0 0 0 0 0 0 0 0 0 0 0 0 0 0 0 0 0 0 0 0 0 0 0 0 0 0 0 0 0 0 0 0 0 0 0 0 0
Wind_Speed
7 7 6 5 4 4 4 4 4 5 6 4 3 2 2 2 5 3 4 10 14 15 15 15 15 16 17 18 18 18 19 19 20 20 21 22 22 22
6 6 6 5 4 4 4 4 5 5 6 3 3 2 2 3 6 4 4 11 13 15 16 15 16 16 16 17 18 18 19 20 20 21 21 22 22 23
6 7 7 5 4 4 4 4 4 4 7 5 2 2 2 3 4 3 4 4 5 13 15 16 16 15 16 17 17 18 19 20 20 21 21 22 23 23
8 7 7 5 6 4 4 5 4 5 5 7 3 2 3 3 3 4 4 4 4 11 14 15 15 15 16 17 17 18 18 19 19 20 21 22 22 22
7 7 7 6 6 4 4 4 4 3 4 4 4 2 2 2 2 3 4 4 5 8 12 13 14 15 16 17 17 17 18 18 19 19 20 21 21 22
7 7 6 7 7 6 5 5 4 3 3 3 4 3 3 2 2 3 4 3 5 5 7 9 12 15 16 16 17 17 17 18 19 20 20 20 20 21
5 6 6 6 7 6 4 4 4 3 3 3 4 3 3 2 3 3 4 4 5 3 4 5 6 5 7 11 14 16 17 17 18 19 19 19 19 19
6 5 4 5 6 7 6 6 6 4 4 4 4 4 5 4 3 3 3 4 4 2 3 5 4 5 5 5 12 16 16 17 18 18 18 19 19 19
6 5 3 3 4 3 4 5 5 6 6 4 4 5 4 4 3 4 4 4 5 4 3 5 3 5 5 7 15 15 15 16 17 18 18 18 19 19
5 6 5 4 4 4 3 3 3 3 3 3 4 4 4 4 4 3 4 4 4 3 2 4 4 4 6 5 12 14 15 16 17 17 17 18 18 19
4 4 5 4 6 5 3 3 2 2 3 4 4 4 6 6 4 1 1 2 4 3 2 2 3 4 4 4 7 12 14 16 17 17 17 18 18 16
3 3 5 5 5 5 4 4 4 3 2 1 2 3 3 3 5 2 2 2 3 3 2 2 3 3 5 4 3 5 7 12 16 17 17 17 17 9
4 3 3 5 5 5 3 3 4 2 2 1 1 1 2 2 2 2 2 2 3 4 3 2 2 2 4 5 4 4 4 5 6 9 13 16 17 13
4 3 3 5 4 4 3 3 2 1 1 1 1 1 2 2 2 2 3 3 3 5 4 3 3 3 4 5 6 5 4 5 5 5 5 12 14 16
3 5 5 5 3 2 2 2 1 1 1 1 2 2 2 2 2 2 2 3 4 4 4 4 4 4 4 5 6 5 5 5 4 4 6 7 6 6
4 5 5 4 2 1 1 1 1 1 1 2 2 1 1 1 1 1 2 2 3 4 4 5 5 5 5 6 6 7 5 5 5 6 7 7 6 5
5 3 2 2 2 1 1 1 1 1 0 1 1 1 1 2 2 2 1 1 2 4 4 4 4 5 7 6 6 7 6 6 6 6 7 8 7 6
6 4 3 3 3 3 2 2 1 2 1 1 1 2 2 2 2 2 2 2 3 4 4 4 4 4 4 5 7 6 5 5 6 6 6 7 9 7
4 4 4 4 3 3 3 2 2 2 2 2 2 2 2 2 2 2 2 3 3 4 4 3 2 3 5 6 6 5 5 6 6 6 6 6 8 9
3 4 4 3 3 3 3 2 2 2 2 2 2 2 2 2 2 2 3 3 4 4 4 3 3 3 4 6 6 7 9 6 6 7 7 6 7 10
3 3 3 3 3 3 3 2 2 2 2 2 2 2 2 2 2 2 3 5 4 3 4 5 5 9 5 3 5 6 6 9 10 7 7 7 6 5
3 3 3 3 3 3 3 3 2 2 2 2 2 2 2 2 2 3 3 3 3 3 5 5 5 4 2 3 6 7 7 8 10 12 10 8 5 5
3 3 3 3 3 3 3 3 3 3 3 2 2 2 2 2 2 2 3 3 3 4 4 4 4 3 3 4 5 6 8 8 6 6 6 10 13 13
Wind_Direction
215 215 219 221 215 217 212 204 223 268 273 244 250 258 256 255 272 270 263 281 288 289 290 289 288 289 289 290 290 292 293 294 294 294 293 292 292 292
211 213 222 223 219 215 214 214 213 232 264 247 238 250 269 279 287 283 272 291 293 293 292 293 291 291 292 293 294 293 293 293 293 292 292 292 291 291
210 212 222 215 215 217 214 214 219 217 254 270 241 255 257 272 288 286 280 280 288 295 296 296 296 296 297 297 296 295 295 295 295 294 293 293 292 292
211 210 220 212 219 218 214 220 224 217 234 267 269 258 254 264 272 283 294 293 285 294 297 298 297 297 297 298 299 299 299 299 298 296 295 294 294 293
207 208 214 207 220 220 217 221 223 222 221 247 268 257 262 272 283 285 285 286 293 296 299 299 300 300 300 300 300 300 299 299 299 299 298 296 295 295
205 206 208 206 216 215 218 222 217 221 227 243 261 267 264 269 269 276 288 281 288 292 293 299 300 301 301 302 303 302 301 299 299 299 298 298 297 295
202 206 209 211 216 213 214 213 205 216 229 241 255 264 262 263 264 263 280 290 282 273 285 291 294 290 294 298 301 299 300 301 300 299 298 298 298 297
200 205 208 209 217 224 233 228 213 214 224 231 246 252 258 253 258 268 277 299 294 278 279 285 280 279 283 281 294 299 301 302 302 302 300 299 298 297
195 193 199 205 201 199 227 238 243 246 237 227 237 246 254 249 251 262 260 263 269 273 277 276 270 275 283 292 300 301 305 308 307 306 304 302 301 299
191 189 190 195 200 196 192 204 227 243 248 244 230 242 247 245 232 240 252 269 274 277 260 272 278 278 291 288 294 301 310 313 313 310 307 306 305 303
184 183 184 194 210 203 187 200 227 254 268 270 275 286 294 297 296 287 300 303 292 282 250 261 283 296 285 273 285 301 310 315 315 315 314 314 312 310
173 185 196 200 208 203 191 192 215 235 236 267 296 313 310 303 308 268 228 258 280 280 258 266 278 309 302 277 277 292 300 307 313 315 316 316 315 314
177 184 198 200 204 209 210 202 225 223 186 185 246 286 299 293 288 276 242 227 246 259 265 268 270 266 265 292 293 281 281 293 303 305 311 313 312 311
179 183 192 194 201 209 218 228 228 183 134 161 237 263 270 275 278 279 271 259 245 251 260 252 254 263 276 287 291 294 294 287 288 292 296 306 308 307
172 180 183 182 176 184 213 213 171 145 166 212 244 253 254 264 277 290 293 290 289 277 269 256 256 264 259 270 283 287 300 295 284 293 300 300 295 297
152 161 163 157 145 170 184 170 150 188 203 221 246 264 274 279 282 280 288 303 304 297 287 275 268 263 265 266 270 280 278 281 297 301 301 295 289 282
138 128 135 148 158 167 170 180 179 184 236 242 242 260 271 282 288 289 281 291 284 289 297 296 288 276 260 259 269 269 277 280 281 296 302 301 292 281
143 155 173 181 189 193 196 206 210 210 217 225 237 249 261 272 283 287 284 278 283 284 287 291 309 319 313 280 243 260 272 279 290 293 290 295 296 292
161 174 185 192 196 198 200 205 217 217 209 212 223 236 250 261 271 280 285 286 285 284 285 288 295 305 312 311 292 257 271 292 297 295 287 284 289 293
174 180 187 190 192 195 199 204 210 213 212 211 218 229 238 252 263 271 277 280 287 290 294 294 282 279 281 288 290 289 287 284 289 294 294 289 278 282
182 185 184 185 190 195 198 202 205 216 216 212 221 228 233 238 254 264 275 293 296 288 294 292 282 300 288 280 287 288 286 291 295 293 297 298 298 294
182 183 183 187 190 193 196 197 205 214 211 216 223 231 234 233 245 259 268 276 277 276 279 286 295 303 283 275 288 293 297 304 307 305 296 289 295 297
181 181 185 188 188 190 193 198 205 214 212 213 218 223 228 236 242 251 261 267 276 284 292 298 305 299 280 273 282 290 296 305 310 314 307 309 307 297